Theta_e
316 310 308 307 298 292 288 290 294 295 296 298 301 300 300 304 300 293 322 329 333 335 340 343 346 348 345 345 344 344 341 341 343 343 346 346 344 342 340 338 337 336 338 339 339 338 339 338 336
313 312 307 299 292 286 287 290 295 296 299 304 304 302 304 304 317 319 323 330 334 337 341 342 345 347 345 345 344 343 341 340 342 342 344 346 344 341 339 338 336 336 337 338 338 339 339 337 335
313 307 302 295 287 286 287 290 294 295 298 297 299 305 307 309 316 321 324 331 334 338 341 342 346 347 344 344 343 342 340 340 341 342 343 345 343 340 338 336 335 336 337 337 337 338 338 336 335
306 303 298 290 286 289 290 293 295 296 296 299 301 303 309 319 320 323 329 333 333 337 340 342 346 347 345 344 341 340 339 339 339 341 343 344 342 339 337 335 335 335 336 336 337 338 337 336 336
302 298 292 289 289 291 293 297 296 295 295 296 303 300 307 319 326 329 332 333 331 335 338 342 345 345 345 343 341 340 339 338 338 339 341 341 339 337 336 334 334 335 336 335 336 339 337 337 336
298 296 290 287 288 290 295 296 296 293 294 296 302 305 310 319 325 328 333 331 332 335 338 342 339 341 343 343 342 341 340 338 338 339 339 339 337 336 335 333 333 334 336 333 335 337 336 334 333
297 292 289 289 288 290 294 297 293 295 295 297 305 301 306 314 326 329 331 330 332 336 338 340 341 339 337 339 339 340 339 338 338 339 339 339 337 336 334 333 332 333 334 334 335 335 333 333 331
298 295 289 290 290 290 293 295 296 296 297 298 306 300 303 317 327 328 331 332 333 335 337 338 338 339 338 337 333 335 336 336 336 336 334 332 332 332 332 330 332 332 333 332 333 333 332 331 330
297 291 288 290 290 292 294 294 294 296 297 300 300 304 306 321 326 327 331 330 332 335 336 337 337 337 336 335 331 330 331 331 331 329 327 325 323 322 322 325 330 333 332 331 331 331 329 327 326
294 290 291 292 292 292 295 293 296 296 295 297 299 306 312 320 324 324 325 326 330 332 334 336 337 337 335 337 332 331 330 327 325 324 323 322 319 318 320 322 326 329 329 330 330 327 322 316 312
293 291 294 293 294 295 296 292 295 294 293 296 298 302 313 317 320 323 323 326 328 332 334 335 336 336 335 336 334 331 329 324 322 320 319 319 317 316 316 318 319 319 319 318 317 314 312 311 310
291 294 294 296 296 295 295 295 292 293 295 296 299 305 313 317 321 322 323 321 324 327 331 334 335 335 335 335 334 334 332 324 320 318 318 317 315 314 313 315 315 316 314 311 310 310 309 309 308
291 292 294 296 295 293 295 293 293 294 296 295 297 308 313 318 322 324 324 322 323 325 329 331 333 334 335 334 334 333 332 327 322 319 319 317 314 313 312 312 313 313 312 309 308 307 307 306 306
293 293 292 294 294 294 292 290 291 291 294 294 298 305 311 314 318 314 317 320 321 326 327 330 331 333 335 334 334 333 332 331 324 320 320 317 316 313 312 310 311 310 310 308 306 305 305 304 304
293 289 290 291 293 292 293 288 291 291 291 293 295 297 306 310 312 314 320 322 322 325 327 328 331 333 333 334 334 335 334 332 327 321 321 319 316 314 312 310 309 309 308 308 305 303 301 300 301
289 287 283 287 292 292 289 285 289 292 291 292 292 292 295 302 309 312 314 317 320 321 324 328 331 331 332 333 334 335 335 333 330 325 323 322 320 317 314 313 312 312 311 308 304 303 301 299 301
286 280 283 287 292 292 289 286 290 293 292 292 292 292 293 294 297 303 311 313 316 319 322 325 329 329 330 331 332 332 333 333 332 330 324 325 322 318 316 314 313 312 311 309 306 302 301 297 296
283 282 283 283 289 289 288 289 292 293 292 293 292 292 293 293 295 298 301 310 314 315 320 325 327 329 329 330 329 328 330 331 333 332 329 325 325 321 317 316 314 313 311 308 305 301 298 296 295
285 284 284 285 291 288 288 288 291 293 291 291 291 292 292 293 298 296 297 298 306 311 314 319 323 327 328 328 326 326 327 329 331 332 331 329 326 323 319 317 314 313 310 309 305 300 295 292 292
286 284 284 286 290 289 286 288 290 291 292 292 292 292 291 291 293 294 295 295 296 304 311 315 320 325 327 329 329 329 328 327 329 331 331 331 329 326 321 319 316 314 311 308 304 298 295 292 291
284 284 283 285 286 286 284 283 284 288 289 292 292 291 292 292 293 293 293 293 294 295 301 311 317 321 326 328 326 316 315 314 317 322 328 329 329 328 325 322 318 315 313 308 305 301 299 294 292
284 289 288 286 284 279 284 277 283 286 288 289 290 289 290 292 291 293 294 294 294 294 296 303 311 318 324 326 325 324 324 323 324 325 323 325 328 328 327 324 321 317 314 310 306 304 302 301 293
287 289 287 285 282 281 280 279 282 284 285 288 289 291 291 293 293 294 295 296 296 297 295 296 306 314 318 324 326 323 323 325 318 314 315 314 320 326 327 325 322 319 316 313 308 305 302 302 300
291 287 285 283 280 276 279 279 279 282 284 286 288 290 291 292 294 295 296 296 296 296 297 298 303 309 314 319 320 321 322 316 309 308 311 309 313 319 318 323 323 320 316 314 309 306 303 303 303
287 284 277 276 275 275 279 278 281 286 286 287 288 290 292 293 294 295 296 296 296 296 297 298 300 303 308 311 312 313 315 314 312 309 310 305 306 308 317 314 316 318 317 315 312 307 304 303 302
285 284 278 271 272 275 280 278 283 287 289 291 291 291 292 293 293 294 295 295 296 296 296 297 298 299 301 305 308 308 310 309 310 307 306 308 309 310 310 314 317 316 316 315 312 309 306 304 303
286 282 284 279 269 274 278 281 287 288 291 291 292 293 293 294 294 294 295 295 294 295 296 296 297 298 299 299 301 303 304 305 306 305 304 306 304 304 303 306 310 314 314 313 312 309 306 305 303
286 289 282 279 271 269 276 277 281 285 289 290 291 292 293 293 294 295 295 295 295 295 295 296 296 297 297 298 298 299 300 301 302 302 302 301 301 301 300 300 302 303 305 308 311 310 308 305 304
285 284 283 284 280 273 271 277 285 287 290 290 291 291 292 294 294 293 294 295 295 295 295 295 296 296 297 297 297 297 298 298 299 299 300 300 299 299 299 299 299 300 301 302 304 306 307 305 304
286 285 285 279 277 277 278 279 287 290 290 291 291 291 292 292 293 293 294 294 294 294 295 294 294 295 296 297 297 297 297 297 297 298 298 298 299 297 299 297 298 300 302 303 303 303 304 303 301
Wind_Speed
5 4 3 6 5 6 0 4 1 3 3 1 3 5 6 2 4 4 1 6 10 10 7 6 9 13 13 12 12 12 12 12 12 13 13 16 17 17 16 16 15 14 15 17 16 16 17 17 18
3 3 6 3 6 4 5 3 5 4 6 8 6 4 3 1 2 3 8 5 11 10 7 5 10 13 13 13 12 11 12 12 12 13 12 15 16 15 15 15 15 14 15 15 15 16 17 17 16
2 4 5 5 4 4 4 3 5 1 5 3 3 4 4 3 2 8 4 10 10 9 8 7 11 13 13 13 12 11 11 11 11 12 11 14 16 14 14 14 14 14 15 14 13 15 16 16 16
2 5 5 5 3 3 4 5 4 4 2 3 4 5 1 3 8 8 10 11 10 8 8 10 13 14 15 14 14 13 12 12 11 12 12 14 15 14 14 14 13 13 14 14 15 16 15 15 16
5 4 4 3 3 3 2 5 6 2 2 1 2 3 2 1 1 10 13 11 11 7 7 9 12 14 14 14 14 13 12 12 12 12 12 14 14 13 13 14 14 12 14 13 13 15 15 16 16
4 3 5 2 3 3 1 4 4 2 1 2 5 4 3 1 6 8 11 10 9 10 8 8 11 12 13 13 12 11 11 12 11 12 12 13 13 13 13 13 13 13 13 12 13 15 16 17 17
7 4 5 4 3 2 5 7 4 5 4 3 9 4 3 1 6 8 9 7 7 8 9 7 8 10 11 12 11 11 12 11 11 11 10 11 11 12 13 13 13 13 13 12 14 15 16 16 15
5 5 4 2 5 4 4 5 6 5 6 3 5 4 4 5 8 7 7 7 7 6 8 8 6 7 7 7 10 11 10 10 10 9 9 10 10 10 10 10 12 14 14 13 15 16 15 15 14
3 6 2 4 5 3 5 3 1 1 5 1 4 6 3 8 9 7 7 5 6 6 8 8 8 6 6 5 6 7 9 9 9 8 9 7 4 5 6 6 10 12 13 13 14 15 15 15 14
6 5 9 3 4 4 5 2 6 3 3 2 2 0 3 9 11 13 12 10 12 13 12 11 10 11 7 5 5 5 5 4 4 5 6 4 5 4 5 6 9 10 11 13 14 13 13 9 4
3 5 5 3 2 3 5 0 4 6 3 7 9 6 6 6 8 13 11 12 15 13 11 14 11 12 11 8 5 3 3 3 3 6 5 5 4 3 3 3 3 4 6 4 6 6 4 6 4
5 1 5 4 1 3 5 3 2 6 8 2 9 7 8 10 13 13 13 10 10 11 12 13 12 13 12 7 7 6 5 3 3 4 6 5 3 4 4 3 4 4 3 5 4 3 5 6 5
3 4 3 3 1 2 2 2 5 7 9 1 5 8 12 12 13 10 8 5 6 10 12 12 12 13 13 12 9 7 7 6 6 5 5 5 4 4 4 4 4 3 3 4 4 4 4 5 5
5 4 3 3 3 2 3 2 1 3 4 4 5 10 10 11 15 5 5 8 9 10 12 12 13 13 12 12 13 9 8 9 7 6 7 7 5 5 4 4 4 3 3 3 4 4 4 4 5
4 4 3 3 4 3 3 4 9 4 3 2 7 7 8 11 6 13 16 14 12 11 9 12 13 12 13 13 12 10 8 8 7 7 9 10 7 6 6 4 4 4 4 5 4 3 3 4 3
4 5 2 3 4 1 4 8 4 3 3 6 5 7 8 11 13 10 9 10 8 8 11 11 11 12 12 12 10 9 9 8 8 7 8 12 11 11 8 6 6 5 5 4 4 4 3 3 2
6 3 3 6 5 2 3 6 4 1 5 6 6 7 8 9 11 13 13 12 10 11 10 12 12 13 13 10 7 7 10 9 8 8 8 12 12 11 9 8 7 8 6 5 5 3 4 3 3
6 3 3 4 4 3 3 9 9 7 5 9 9 9 9 9 17 12 14 13 12 10 11 12 12 13 12 9 6 4 5 7 9 9 9 11 11 13 11 8 8 8 7 6 5 6 2 3 5
6 4 4 2 1 3 5 6 12 10 7 10 11 10 11 11 14 8 9 9 9 8 9 12 12 15 10 9 8 7 9 8 8 8 12 14 13 14 13 9 9 10 10 11 9 4 5 2 3
3 3 2 2 1 3 3 9 10 9 11 8 10 11 10 8 10 8 8 7 9 13 13 12 15 15 13 11 10 9 8 6 9 9 11 13 13 14 13 12 11 12 9 9 11 8 5 2 8
3 5 4 5 1 3 4 9 7 6 5 7 7 6 7 10 11 9 7 6 7 9 11 14 16 16 14 15 5 3 4 3 3 5 9 12 14 14 14 14 11 13 12 11 13 13 13 9 9
5 7 5 4 4 3 2 6 7 5 11 6 9 6 8 7 4 5 7 7 5 7 7 8 8 11 12 12 11 14 12 12 10 9 8 9 14 13 14 15 14 14 11 13 14 13 14 10 11
6 4 4 3 4 3 4 2 9 3 6 6 8 7 7 8 7 9 8 7 6 7 4 4 6 7 7 9 12 10 12 9 3 3 7 7 9 11 13 15 14 14 12 14 14 14 15 12 10
9 7 7 5 3 2 6 6 7 3 3 3 4 7 8 9 9 8 7 7 6 6 7 4 2 3 6 8 8 11 12 7 4 5 6 5 6 8 6 10 12 13 13 13 14 16 16 15 14
4 7 2 4 3 6 1 3 11 5 1 3 4 6 7 8 9 10 11 11 10 10 9 6 5 2 2 5 5 7 8 8 10 7 6 6 5 4 9 8 7 9 12 13 13 14 15 16 15
7 8 8 8 5 4 3 6 6 2 3 4 4 4 7 9 7 8 8 8 9 9 9 8 7 5 2 4 6 5 6 4 5 5 5 6 7 8 8 10 11 10 10 10 10 9 11 13 14
6 4 5 8 3 4 4 6 6 3 6 5 7 9 9 8 8 9 8 5 6 7 8 9 8 6 3 4 5 6 5 6 6 7 6 6 5 5 7 9 11 11 10 9 10 9 11 11 13
5 8 4 3 3 3 3 3 6 7 7 5 9 8 7 7 9 9 8 8 7 6 6 7 6 6 5 5 4 5 6 6 6 5 7 7 5 6 7 8 9 9 11 12 13 11 10 11 11
3 3 4 5 5 7 2 7 7 8 8 8 8 6 6 8 7 7 7 7 7 6 7 7 8 8 8 6 6 7 6 5 5 6 6 7 6 7 8 9 9 11 10 9 10 13 13 13 13
3 7 7 6 5 2 4 7 2 9 8 8 5 3 3 5 8 7 7 8 9 9 10 9 8 8 7 7 7 7 6 6 6 6 6 6 8 6 8 8 9 9 10 10 12 13 12 13 12
Wind_Direction
330 1 76 43 52 64 333 250 240 170 105 234 91 139 177 116 157 206 88 153 127 147 154 157 140 124 128 121 113 109 110 108 112 107 100 108 106 98 97 98 97 98 103 99 90 99 101 95 92
324 47 43 71 83 73 267 257 185 203 142 121 101 109 61 117 93 88 124 193 144 146 139 144 124 131 129 119 116 112 111 113 114 115 104 115 109 104 101 103 102 108 110 101 92 95 106 97 96
24 34 83 90 110 168 198 218 200 149 138 159 102 53 133 181 48 153 225 149 136 144 139 149 141 136 130 125 118 119 118 120 120 116 110 119 110 109 108 106 108 113 111 99 103 101 105 100 97
63 16 35 86 157 238 211 187 215 136 8 85 119 78 13 225 152 191 145 140 135 143 141 152 147 143 139 134 136 134 133 129 132 126 115 116 110 113 113 110 110 113 109 100 90 110 106 102 102
36 55 63 67 297 288 250 161 170 130 139 114 131 183 14 61 46 136 143 146 147 144 141 154 151 149 147 144 144 141 139 137 135 134 124 118 120 121 116 114 113 116 108 104 100 115 109 106 97
46 96 65 140 248 326 278 160 149 129 109 145 71 110 189 25 126 157 145 153 157 149 150 156 154 152 151 148 147 144 144 140 141 136 136 130 130 125 121 121 120 122 110 112 108 100 96 94 93
125 89 168 166 207 196 209 144 175 160 143 231 157 128 280 236 187 152 151 139 149 152 152 157 160 160 154 155 154 153 151 148 146 142 142 131 128 129 128 127 124 128 118 113 112 108 105 101 97
108 94 112 200 194 219 181 165 147 151 212 102 161 191 220 209 155 128 133 138 140 152 159 159 158 160 157 161 162 153 150 152 145 139 126 119 119 119 124 125 132 134 127 119 116 115 108 105 99
116 67 152 199 156 219 147 144 164 46 116 216 186 159 234 143 125 123 148 150 157 163 169 166 162 161 155 155 157 146 152 149 135 123 117 106 112 120 113 131 131 134 129 131 120 118 111 102 92
85 113 203 206 185 180 169 131 167 144 136 246 277 271 104 135 156 164 168 175 181 185 184 182 174 175 160 161 150 149 151 144 133 134 134 119 126 133 130 128 128 125 126 130 123 118 104 85 74
140 177 192 193 173 145 151 199 169 129 243 219 205 183 159 152 174 187 189 185 179 184 183 188 183 179 169 173 162 148 137 137 146 148 143 137 129 127 118 114 118 121 114 96 105 104 85 95 93
118 198 169 171 143 112 156 110 243 194 215 252 222 178 159 178 189 197 200 192 172 176 186 185 183 181 180 171 175 171 166 157 158 168 156 147 145 149 148 143 150 144 123 125 128 121 121 106 103
141 183 128 135 122 107 101 204 239 248 250 49 98 158 184 194 205 214 210 193 178 190 188 187 180 183 185 181 183 181 183 178 178 169 168 153 157 164 151 159 159 156 143 146 142 138 133 127 123
183 138 137 158 169 183 171 249 24 296 273 210 155 196 201 201 207 203 204 206 199 197 197 186 190 187 182 189 186 192 195 188 178 176 181 168 166 162 166 164 169 164 162 145 141 148 146 143 135
114 103 8 211 167 198 143 263 237 276 319 251 221 232 230 231 204 214 215 215 204 209 189 195 193 191 189 190 189 186 188 182 183 186 181 178 169 170 171 169 176 179 161 144 123 95 81 110 116
65 47 114 299 133 99 108 266 273 355 172 257 240 244 250 248 233 235 229 223 208 193 193 192 193 196 197 195 190 183 181 185 187 190 192 189 186 178 177 182 191 176 165 156 148 148 121 123 123
14 196 182 306 194 117 126 268 264 221 17 309 269 249 241 250 252 236 228 222 213 204 189 193 193 195 198 199 192 182 179 183 191 189 195 194 190 187 185 189 189 174 169 170 162 132 138 131 103
195 204 217 241 216 147 158 260 285 276 294 273 283 272 254 249 249 234 226 220 219 207 203 201 195 199 196 199 194 181 183 194 187 187 196 200 195 190 191 191 185 178 171 173 168 168 133 143 143
147 155 173 235 164 145 237 267 278 290 295 275 268 260 257 254 263 237 236 219 214 216 202 203 191 203 187 195 195 198 205 199 202 200 196 201 201 193 194 193 182 181 189 186 179 134 148 122 134
134 121 250 310 8 152 349 277 260 268 261 237 257 266 263 278 286 269 254 231 210 222 213 214 210 203 198 200 207 207 202 206 208 205 202 202 202 199 197 193 188 187 187 182 176 169 153 140 178
200 170 191 208 37 31 1 305 320 292 264 267 256 267 274 264 285 301 299 252 234 223 211 210 211 209 205 206 176 96 75 68 149 207 213 212 201 200 198 199 193 193 185 189 190 185 185 179 203
172 201 153 161 95 225 3 278 303 300 295 313 316 313 325 327 332 328 336 345 328 267 237 225 219 214 210 193 190 199 207 210 211 204 205 205 209 199 202 203 195 195 196 193 194 194 196 184 183
199 115 129 93 97 83 317 57 272 342 315 331 10 41 8 13 17 13 7 4 357 4 338 269 231 210 195 193 200 202 213 221 184 168 179 189 205 217 207 199 203 200 197 199 196 194 200 203 200
143 83 53 56 88 312 225 152 284 223 189 0 353 2 5 11 10 10 353 353 358 9 30 20 288 225 191 187 193 199 213 195 171 185 196 191 202 212 212 207 202 201 200 200 198 200 202 207 215
90 85 358 350 5 222 92 100 242 262 298 292 332 23 18 12 16 14 8 1 357 4 6 19 20 282 196 203 199 199 207 195 206 199 200 180 190 206 217 204 203 207 211 207 202 199 204 208 211
186 156 159 195 196 250 110 228 246 124 90 57 65 54 45 30 14 20 21 9 354 353 357 13 13 349 293 234 226 217 222 215 216 202 198 213 209 213 206 213 218 217 212 213 207 205 212 212 217
191 188 157 106 28 61 223 286 327 88 79 53 78 57 39 23 7 356 357 27 358 352 353 352 349 336 317 254 244 238 230 223 226 221 217 223 212 204 195 202 216 222 215 207 207 212 215 214 218
155 158 87 5 143 253 274 254 229 149 136 120 62 54 14 359 5 359 356 353 349 353 333 336 343 319 314 311 283 265 248 245 248 241 237 232 232 214 203 207 211 215 222 228 228 231 225 219 222
137 171 61 119 150 169 185 253 227 135 148 115 94 42 15 358 356 350 345 347 339 333 348 338 341 336 335 335 312 297 289 274 261 250 242 231 232 214 216 213 214 217 216 215 225 235 239 233 230
180 185 153 144 223 234 152 258 55 134 138 114 128 94 348 340 340 359 357 353 359 351 352 353 350 349 338 323 311 307 312 300 288 272 263 242 241 224 227 218 223 222 225 224 227 233 230 234 234